TITAN 34D TRANSTAGE R/B, 19490

Orbit data source: Space-Track

TITAN 34D TRANSTAGE R/B, 19490 is space debris in HEO originally from a launch on Fri, 02 Sep 1988 UTC launched from the Air Force Eastern Test Range (AFETR). Debris objects in space refer to the collection of defunct objects orbiting the Earth. Examples of debris include non-operational satellites, rocket bodies, and fragments generated from explosions, collisions, or faulty payload assembly.

Loading next visibility...
Identifier
19490, 1988-077C
Orbit
HEO
Country
Flag of USUS
Related business
Manufacturer
Martin Marietta
Mission
Spacecraft
Bus & Motor
TRANSTAGE, Unknown motor
Mass
~1,950 kg wet, ~1,950 kg dry
Launch date (UTC)
1988-09-02 (38 years ago)
Launch vehicle
Unknown
Launch site
Air Force Eastern Test Range (AFETR)
Object type
Payload
Rocket body
Debris
Shape & HBR
Cyl + 2 Nozzle, 3.0 m
Radar Cross Section
18.002 m², Large (>1 m²)

Expand to show TLE details & history
Last TLE update: 3 days ago

TLE from 3 days ago
0 TITAN 34D TRANSTAGE R/B
1 19490U 88077C   26170.83933990 -.00000189  00000-0  15149-2 0  9994
2 19490  26.6773  81.6655 7399637 332.8942   2.9272  2.04326332 52466
Epoch: 2026-06-19T20:08Z
TLE epoch observation values (Epoch: 2026-06-19T20:08:38.967Z)
Latitude
0.00005°
Longitude
-128.61272°
Altitude
773.735 km
Speed
9.812 km/s
True Right ascension
05h 26m 26s
True Declination
0° 00' 00"
Sunlit
Object was in daylight at epoch
Visualization orbit readout
Latitude
Unknown
Longitude
Unknown
Altitude
Unknown
Speed
Unknown
Apparent Right ascension
Unknown
Apparent Declination
Unknown
Sunlit
N/A
Visualization observer readout
Local Sidereal Time
23:07:42
Azimuth
Unknown
Elevation
Unknown
Doppler factor
Unknown
Orbital elements
Apogee altitude
39,273.51 km
Perigee altitude
444.468 km
Semi-major axis
26,237.126 km
Eccentricity
0.73996
Inclination
26.6773°
RAAN
81.6655°
Arg. of periapsis
332.8942°
True anomaly
28.12435°
Mean anomaly
2.9272°
Eccentric anomaly
11.06171°
Mean motion
0.5107 °/min
Orbital period
704.91 mins
BSTAR
0.0015149
Loading maneuver chart data...
Computing Atmospheric mass density...

Documentation

Showing up to 5 results
|